GFSCGP_850_thetae_273.txt.gz
Theta_e
303 301 300 302 303 304 303 303 303 304 302 302 302 301 302 303 303 303 304 305 305 305 306 305 304 304 304 304 304 303 303 304 304 304 303 302 303 303 303 302 303 303 302 302
301 299 302 302 302 303 302 302 302 303 302 301 302 301 304 304 304 305 305 304 306 306 306 305 305 304 304 304 304 303 303 303 304 304 303 302 303 303 303 302 302 302 302 302
300 301 301 302 302 302 302 302 304 304 304 302 301 302 304 306 304 305 306 306 307 308 307 306 305 304 304 304 303 303 303 303 304 303 303 302 303 303 303 302 302 302 301 301
301 300 300 300 302 302 302 301 303 303 304 302 304 303 304 307 307 305 305 306 307 308 308 307 306 305 304 304 303 303 303 302 303 303 303 302 303 303 303 302 301 301 301 301
300 298 299 301 301 301 302 301 303 303 303 304 304 302 303 304 308 308 304 306 307 308 308 307 306 306 305 304 303 303 303 302 302 303 302 302 302 303 303 302 301 301 301 301
299 298 299 300 298 299 299 301 302 302 302 303 302 303 303 308 309 307 307 307 308 307 308 307 307 306 305 304 303 303 302 302 302 302 302 302 302 302 302 302 301 301 301 300
300 298 297 298 298 298 300 301 306 307 303 305 302 303 304 306 306 307 305 306 307 307 306 305 306 305 304 304 303 303 302 302 302 302 302 301 302 302 302 301 300 301 301 300
299 300 296 296 298 298 298 302 305 305 314 313 302 305 308 306 305 306 306 306 306 306 305 305 305 306 305 304 303 303 302 302 302 302 302 301 301 301 301 301 300 301 301 300
301 305 297 296 296 298 299 301 302 302 297 303 303 303 305 305 304 303 304 305 305 305 304 304 304 304 305 305 305 305 304 303 302 302 302 301 301 301 301 300 300 301 301 300
303 301 297 296 296 297 298 299 301 300 299 304 307 305 307 309 306 303 303 303 305 305 305 304 305 305 306 307 307 306 304 304 303 303 302 301 300 301 301 300 300 301 300 300
295 301 298 295 294 296 296 298 299 301 305 308 309 307 303 306 306 304 302 304 305 305 305 305 305 305 306 306 306 306 304 304 303 302 302 301 300 300 300 300 300 301 300 300
299 298 297 296 296 295 296 298 300 302 303 303 307 306 305 307 305 304 304 306 307 306 305 305 305 305 305 305 305 306 305 304 303 302 301 301 300 300 300 299 300 300 299 299
301 299 295 298 296 293 293 297 299 300 300 300 303 305 302 305 306 306 305 307 306 306 306 305 305 305 305 305 305 305 305 304 303 302 301 300 300 299 299 299 300 300 299 299
300 303 298 305 302 294 292 294 297 297 297 302 305 306 306 305 305 305 306 307 307 307 307 307 306 306 305 306 306 306 305 304 302 301 301 300 300 299 299 299 300 299 299 299
300 303 302 303 303 297 297 293 296 299 302 302 305 303 304 305 304 304 306 308 307 307 307 307 306 306 306 306 306 306 304 304 302 301 301 300 300 299 299 299 300 298 298 299
297 301 299 301 301 302 304 301 297 299 300 301 302 301 303 303 304 303 306 307 307 307 308 307 307 307 307 307 307 306 304 303 303 303 301 300 299 299 299 299 299 298 298 299
297 300 303 308 304 301 303 303 302 299 298 301 301 303 302 302 301 303 305 306 306 306 307 308 307 308 308 307 307 306 305 304 303 302 301 299 299 299 299 299 298 298 298 298
300 301 304 307 303 307 306 303 302 303 303 302 302 304 304 304 305 305 305 306 306 307 307 307 307 307 307 307 307 306 304 304 302 301 300 299 299 299 299 299 298 298 297 298
303 305 306 307 307 306 306 304 301 299 302 301 302 302 302 303 303 303 304 305 306 306 307 307 307 308 308 307 307 305 304 302 302 301 300 300 300 299 299 299 298 297 297 298
302 304 306 306 306 305 304 303 304 298 306 290 294 302 301 301 301 303 305 306 306 306 305 305 305 305 306 306 305 304 304 302 302 302 302 301 301 300 300 299 298 297 296 297
302 304 304 304 305 304 298 295 301 302 302 289 289 289 291 297 297 296 301 304 305 305 306 306 306 306 306 304 303 304 303 304 305 304 302 301 300 300 299 298 298 297 296 296
302 303 304 303 304 305 289 293 297 291 288 287 286 286 288 288 290 291 295 297 299 301 301 302 303 303 303 303 303 303 304 306 304 303 302 301 300 300 299 298 298 297 296 296
299 296 296 294 295 292 289 288 287 287 286 285 284 284 285 286 287 288 291 294 295 297 299 299 299 300 301 301 302 304 305 304 303 302 301 301 300 299 298 298 298 298 297 296
292 293 291 292 295 291 288 286 285 284 284 284 283 283 285 284 286 288 289 290 292 294 296 298 299 299 300 300 301 301 301 301 301 301 301 300 299 299 298 298 297 297 297 297
288 289 290 292 291 291 286 281 280 282 282 280 281 281 281 282 285 286 287 289 290 290 293 295 296 297 297 298 298 299 299 299 299 299 299 299 299 298 298 297 297 297 297 297
287 285 288 289 286 285 287 279 277 277 277 278 279 281 280 279 278 282 288 288 289 290 290 292 293 294 296 297 298 299 300 299 298 298 298 299 298 297 297 297 297 297 296 296

GFSCGP_850_thetae_276.txt.gz
Theta_e
302 299 300 303 303 304 304 304 303 303 302 302 301 302 304 304 302 301 303 305 305 307 309 309 308 307 305 305 304 304 304 303 303 303 303 303 302 303 303 303 303 303 303 302
299 298 299 301 301 302 302 302 301 302 302 301 301 301 303 304 303 303 304 304 304 306 307 306 307 306 305 304 304 304 304 303 303 303 303 303 302 302 303 303 303 302 302 302
298 300 300 301 301 301 301 301 302 303 303 301 300 302 303 304 303 305 305 305 305 306 306 306 305 305 304 304 304 304 304 303 303 303 303 302 301 302 303 303 303 302 302 301
298 299 300 300 301 300 301 301 303 303 303 301 303 302 303 306 306 305 306 305 305 306 306 307 307 305 304 304 304 304 304 303 303 303 303 303 302 302 303 303 302 302 301 301
299 298 299 300 300 299 300 301 302 302 302 302 302 302 301 303 307 307 305 306 308 307 306 307 307 307 305 304 304 304 304 303 303 302 303 303 302 301 302 303 302 302 301 301
298 298 298 299 297 299 299 300 301 301 300 301 300 301 300 305 307 308 306 307 307 307 307 306 307 307 306 305 304 304 303 303 303 302 302 303 302 301 302 302 302 302 301 301
299 298 297 297 297 298 300 299 303 303 299 303 301 301 303 304 305 306 307 307 308 308 307 307 307 306 306 305 304 304 303 303 303 302 302 302 302 301 301 302 302 302 301 301
298 299 296 296 297 298 298 299 303 302 307 308 301 304 306 305 304 305 307 307 307 307 306 306 307 307 306 306 305 304 303 303 303 302 302 302 302 301 301 301 302 301 301 301
297 301 296 296 296 297 298 300 301 302 296 301 303 302 303 305 302 303 302 304 305 306 306 306 305 306 307 306 305 304 304 303 303 303 302 302 302 301 301 301 301 301 300 300
300 301 296 296 296 296 297 298 300 299 298 301 304 304 305 307 306 302 302 301 304 305 305 305 305 305 306 307 306 305 304 304 304 303 302 302 302 301 301 300 301 300 300 300
295 300 297 295 295 297 296 298 297 298 302 304 306 306 302 304 305 303 301 303 305 305 305 305 305 305 306 306 306 306 305 304 304 303 303 302 302 301 300 300 300 300 299 300
301 301 296 295 295 295 296 298 299 300 301 302 306 306 305 303 304 302 304 305 305 305 306 305 305 305 304 305 305 305 305 305 305 304 303 303 302 301 300 300 300 299 299 300
301 302 297 297 295 293 293 296 298 299 300 300 303 305 302 304 305 305 305 307 307 306 306 305 304 304 305 305 305 305 305 305 305 304 303 302 301 301 300 300 299 299 299 299
304 303 305 307 300 294 292 292 297 297 297 303 304 305 306 304 304 303 305 307 307 308 307 306 305 305 305 305 305 305 305 305 305 304 303 302 302 301 300 300 299 298 299 299
303 304 305 306 301 296 297 292 296 299 301 301 304 302 302 302 302 302 304 305 307 307 307 307 307 307 306 306 306 305 305 305 305 304 303 302 302 301 300 299 299 298 299 298
299 306 302 306 305 304 304 303 295 298 299 300 301 300 302 301 302 301 303 305 305 306 307 308 308 308 308 307 307 306 306 306 305 304 304 303 301 300 299 299 298 298 299 298
299 302 301 307 306 306 304 304 304 301 297 299 300 301 302 301 301 302 304 304 305 306 307 307 307 307 308 308 308 307 307 307 305 304 304 303 301 300 299 299 298 299 299 298
300 300 303 307 303 307 305 303 303 304 303 300 301 303 304 303 304 304 303 303 304 304 305 305 306 306 307 307 307 307 307 306 305 304 303 303 301 300 299 298 298 299 298 298
301 302 305 306 305 304 304 303 299 302 302 293 294 295 295 295 299 300 298 298 297 299 300 301 302 304 304 305 306 307 306 306 305 305 304 302 301 300 299 298 299 299 298 298
302 302 304 305 307 306 304 299 293 297 304 290 290 290 290 292 299 296 292 292 295 298 298 300 302 302 303 304 303 304 306 305 306 305 304 302 301 300 299 299 299 299 298 297
298 301 302 303 304 303 292 291 291 302 296 288 288 287 288 289 288 288 289 291 292 293 295 298 300 300 300 301 303 303 304 305 306 305 303 302 301 300 300 299 299 298 298 297
296 299 301 301 301 301 291 291 296 290 288 286 285 285 285 285 286 286 288 289 290 292 294 295 297 298 297 299 300 301 301 303 303 303 302 301 300 299 299 299 298 298 297 297
296 291 294 292 293 291 289 289 287 287 287 285 284 284 283 283 284 284 286 289 289 290 291 292 294 296 296 296 296 296 299 300 300 300 300 300 299 299 299 298 298 298 298 297
292 291 290 290 292 290 287 285 284 284 284 283 280 280 281 280 281 282 282 284 287 288 289 290 293 294 295 294 295 294 294 295 297 299 299 299 299 299 298 298 298 298 298 298
289 288 289 291 290 285 283 282 280 280 280 281 281 280 278 278 279 279 279 279 281 285 287 290 291 291 292 293 294 295 296 295 295 297 298 298 299 299 298 298 298 298 298 298
285 284 288 287 281 284 282 278 277 277 277 276 276 280 280 276 276 277 278 278 278 280 284 286 288 290 291 292 294 294 295 295 296 295 295 297 298 298 298 297 297 297 297 297

GFSCGP_850_thetae_279.txt.gz
Theta_e
301 299 300 304 303 304 304 306 305 303 303 303 301 302 305 305 302 300 302 304 305 307 310 313 313 312 310 309 307 306 305 304 303 302 303 303 303 302 303 303 303 303 303 303
298 298 299 300 300 302 303 302 303 302 301 301 300 300 301 302 301 303 303 303 304 305 307 308 310 310 310 309 307 306 305 304 304 303 303 303 303 302 302 303 303 303 302 302
296 299 298 298 299 300 299 300 301 302 302 300 300 302 302 303 302 303 304 304 305 305 305 307 307 308 309 308 307 305 305 304 304 303 302 303 302 301 302 303 303 303 302 302
297 298 300 299 299 299 299 298 301 302 302 300 301 301 302 303 303 303 304 306 307 306 305 305 306 307 307 308 307 306 305 304 304 303 302 303 303 303 302 303 303 302 302 301
299 297 298 299 299 298 299 300 301 301 300 300 301 301 300 302 304 304 305 305 306 307 308 307 306 306 306 307 306 305 304 304 304 303 302 302 303 302 301 302 302 302 301 301
298 297 297 298 297 298 298 300 301 299 298 297 299 300 304 302 304 306 307 307 308 308 307 306 306 305 305 305 305 305 304 304 304 303 303 302 303 302 301 301 302 302 302 301
298 297 297 297 297 298 298 298 299 297 295 301 299 299 302 302 303 304 305 306 308 308 308 307 307 305 305 305 305 304 304 304 304 304 303 303 302 302 302 301 301 301 301 301
297 298 296 295 297 299 298 298 300 298 302 303 300 302 303 302 302 304 305 306 308 307 307 307 307 306 305 305 305 305 304 304 304 303 303 303 302 302 302 302 301 301 301 301
297 299 296 296 296 297 298 300 300 301 294 300 303 302 301 303 303 302 302 303 305 306 306 306 306 306 305 305 305 305 305 304 304 303 303 303 302 302 302 301 301 300 300 300
299 301 296 295 296 296 297 297 300 297 297 300 302 302 303 304 306 304 302 301 305 305 306 306 305 305 305 304 305 305 305 304 304 303 303 303 302 302 301 301 301 300 300 300
297 301 296 295 294 297 296 297 296 297 300 301 303 303 301 302 302 305 302 302 304 305 305 305 305 305 305 305 304 304 304 304 304 303 303 303 302 302 301 301 301 300 300 300
301 303 297 296 294 294 295 297 298 299 298 301 304 304 304 302 302 302 304 306 307 307 306 306 305 304 304 305 305 305 305 304 304 304 303 303 302 302 301 301 301 300 300 300
301 304 302 302 297 292 292 295 298 299 299 299 302 304 300 301 304 304 304 306 307 307 306 306 306 305 305 305 305 305 305 305 304 304 303 303 303 302 302 302 301 300 300 299
304 304 306 309 305 298 297 293 297 299 299 303 303 304 305 304 303 303 304 304 305 307 307 307 306 305 305 305 306 306 306 306 305 305 304 304 304 303 302 302 301 300 300 299
306 307 306 306 304 298 301 297 296 299 301 300 304 302 302 301 303 302 302 303 304 306 307 307 308 308 307 306 306 306 306 306 306 305 304 305 305 303 302 302 301 300 299 299
300 306 305 309 307 308 306 301 300 299 299 300 300 300 299 299 300 300 301 301 299 299 299 301 303 306 306 306 306 305 305 305 304 304 305 305 305 303 302 301 300 300 299 298
300 303 306 308 306 306 304 305 303 299 297 299 299 300 300 300 300 297 295 294 295 296 298 298 298 300 302 304 305 305 306 306 305 304 304 304 305 304 303 301 300 300 299 298
300 301 303 306 304 308 306 304 305 305 306 303 303 304 295 293 293 291 290 291 291 293 294 296 297 298 299 301 303 304 304 305 304 305 303 303 304 303 303 301 300 299 299 298
299 300 302 304 305 305 304 299 299 302 298 291 292 291 291 290 294 291 289 288 289 290 292 293 294 296 298 298 300 302 303 304 304 303 304 304 304 304 303 301 301 300 298 298
298 300 300 302 305 304 299 293 292 293 299 289 289 289 288 290 296 290 288 288 288 289 290 292 294 295 296 297 298 300 302 303 304 304 305 304 304 304 303 302 301 300 298 298
294 299 301 302 302 297 292 291 290 301 294 288 287 287 287 288 287 287 288 288 287 287 289 291 292 293 293 294 295 297 298 299 300 302 303 303 303 303 303 301 300 299 298 298
289 292 294 294 298 298 290 290 293 290 288 287 286 286 286 285 286 286 286 286 287 288 288 288 291 292 293 293 293 294 294 295 296 297 299 300 301 302 301 300 299 298 298 298
291 290 290 291 292 289 288 288 287 288 288 286 285 283 282 281 282 282 283 283 283 283 285 286 287 289 291 293 292 292 293 293 294 296 296 297 299 300 300 299 298 297 297 298
291 291 290 287 290 288 287 285 284 284 283 282 281 281 280 279 279 280 280 281 281 281 281 283 284 287 289 291 291 292 292 293 294 294 295 295 296 297 298 298 297 298 298 298
287 288 286 289 288 286 284 282 280 280 280 279 278 277 277 276 277 277 277 278 279 280 279 279 280 283 285 286 289 289 292 292 293 294 294 294 294 295 296 296 297 298 298 299
282 282 287 287 280 282 281 278 278 277 276 277 277 277 275 274 274 274 275 276 276 277 277 277 278 279 282 284 285 287 290 291 292 294 294 293 293 294 295 296 296 297 297 297

GFSCGP_850_thetae_285.txt.gz
Theta_e
299 298 299 300 305 302 304 304 305 305 303 303 302 303 304 305 303 302 304 305 306 307 311 309 310 311 312 313 313 312 312 312 309 306 302 301 302 302 303 303 303 303 304 303
297 298 298 298 300 302 303 304 303 301 301 301 301 301 302 301 302 303 304 304 304 306 307 307 308 308 309 312 313 312 312 311 310 307 304 302 302 302 303 303 302 303 303 303
298 298 296 299 299 301 301 303 303 303 300 298 298 301 302 300 300 302 302 303 303 304 304 304 305 306 307 309 314 313 312 312 311 309 305 302 302 302 302 302 302 302 303 303
297 296 296 297 298 299 301 298 301 301 301 299 297 299 301 302 303 300 301 303 305 305 305 305 305 305 306 307 309 314 312 312 311 309 307 304 302 302 302 303 303 302 303 303
299 295 296 297 298 298 299 295 297 298 297 298 298 298 300 301 301 301 301 302 303 304 305 306 305 306 307 305 306 309 313 311 311 309 308 305 303 302 303 303 302 302 302 303
297 296 296 296 296 296 296 298 298 296 296 297 297 298 304 301 300 301 303 305 306 306 307 308 307 304 304 304 304 305 309 311 310 309 308 305 304 303 302 303 302 302 302 302
297 297 296 296 297 297 298 298 299 297 296 301 296 296 303 301 300 299 300 300 305 306 306 307 307 306 305 304 303 303 305 309 309 309 308 306 305 303 303 302 303 302 301 302
299 299 296 295 298 299 298 298 300 299 299 300 296 299 301 298 298 300 300 303 305 305 306 306 306 306 305 304 303 302 303 305 307 308 307 306 305 304 303 302 302 302 302 302
296 298 295 296 296 298 298 299 298 299 292 300 301 300 300 301 301 300 300 303 304 304 304 304 305 305 305 304 303 302 302 303 305 307 307 306 305 304 303 303 302 302 302 301
298 299 296 295 295 295 297 298 299 297 297 298 300 300 302 303 303 301 300 298 301 302 302 303 303 303 302 301 301 300 301 302 304 305 306 305 305 304 303 303 302 302 302 301
297 302 296 295 295 297 297 298 297 298 300 302 300 301 297 301 301 299 297 297 298 299 299 300 301 302 302 301 300 300 300 300 302 303 305 304 304 304 303 303 302 302 301 301
296 300 299 294 294 293 295 298 298 300 298 298 300 301 299 299 298 297 295 296 297 297 298 298 298 299 299 300 299 299 300 300 301 302 303 304 304 303 303 303 303 302 302 301
299 301 294 303 298 293 293 295 298 298 299 299 301 301 297 297 295 294 295 295 295 296 297 299 299 299 299 299 298 299 299 299 300 300 301 302 303 303 303 303 303 302 302 301
297 303 302 305 303 294 294 294 297 300 302 303 302 302 299 298 296 294 294 294 294 294 293 294 296 297 299 300 299 298 299 299 299 300 300 301 302 303 303 303 302 302 302 301
293 297 305 305 302 297 295 294 296 298 301 302 305 301 299 297 296 293 292 292 293 294 295 294 293 294 297 298 300 300 299 299 300 300 300 301 301 301 302 302 302 302 301 301
292 295 298 302 304 307 308 304 296 298 298 300 300 300 298 295 292 291 290 290 289 289 291 293 294 295 295 295 296 298 300 301 301 300 300 300 301 301 302 302 301 301 301 301
291 295 294 297 299 303 306 307 297 300 300 301 301 301 297 296 292 290 289 288 288 287 288 290 292 292 294 295 295 296 297 299 300 302 301 301 300 300 301 301 302 302 302 302
292 293 295 296 293 298 303 292 295 303 296 294 298 292 293 291 289 288 287 287 286 285 285 285 288 291 292 294 295 295 295 297 298 300 301 301 301 301 301 300 300 301 302 302
293 293 296 296 295 297 297 291 290 293 291 290 291 290 290 290 290 288 286 285 284 284 283 283 283 284 288 293 294 295 295 296 296 297 298 299 300 301 301 301 301 300 300 301
291 293 293 292 295 296 291 290 291 292 290 290 289 289 289 291 294 289 285 284 284 283 283 284 284 285 286 286 289 292 294 295 295 295 296 296 297 299 300 300 300 299 298 299
283 285 289 289 291 292 290 290 290 293 290 288 287 286 286 287 286 284 283 283 282 282 282 283 283 284 284 285 286 287 289 293 294 295 295 296 295 296 297 298 299 298 298 297
287 285 284 286 291 291 289 290 290 290 289 287 285 283 283 283 283 282 282 281 281 281 281 282 282 282 281 281 283 285 287 288 290 293 296 296 296 295 295 297 297 297 297 297
283 285 286 288 289 289 288 289 286 288 287 283 282 281 280 280 280 279 279 279 279 279 279 280 280 281 281 281 281 282 283 285 288 289 292 294 296 295 294 295 296 296 295 294
282 284 289 288 284 286 285 283 283 283 281 279 278 278 277 277 277 277 278 278 278 278 278 278 279 279 280 280 280 280 281 282 283 286 287 291 294 296 294 293 293 293 293 293
285 283 282 286 288 285 281 280 280 279 279 278 278 276 275 275 275 275 275 276 276 276 277 277 277 278 279 279 279 279 279 280 282 283 285 287 290 293 295 294 291 292 292 292
281 281 286 287 278 279 280 277 277 277 277 276 276 276 276 275 274 273 273 273 273 274 274 275 276 277 278 279 279 278 278 279 280 281 283 284 286 289 292 294 294 291 291 291

GFSCGP_850_thetae_288.txt.gz
Theta_e
300 303 303 305 306 307 307 307 307 308 307 307 309 311 311 310 309 309 308 308 309 309 309 309 311 311 312 313 314 315 314 314 314 312 308 306 303 302 302 303 303 303 303 303
300 302 305 304 305 306 306 306 306 307 306 304 307 307 307 307 308 307 307 307 307 308 308 307 307 308 310 311 313 314 315 314 314 313 311 308 305 301 302 303 303 303 303 303
307 309 303 302 303 304 305 306 306 306 305 305 304 306 307 308 308 307 306 306 306 306 306 306 306 306 306 308 310 312 314 314 313 313 310 307 304 301 301 302 303 303 303 303
302 307 302 301 302 303 304 305 305 305 305 304 302 305 307 308 307 305 306 305 305 305 305 305 305 304 305 306 306 309 311 312 312 312 310 309 308 303 302 302 303 303 303 303
305 300 300 304 304 302 304 303 304 305 305 304 303 302 306 305 306 307 308 307 307 306 305 304 304 304 305 305 305 306 308 311 311 312 311 310 308 305 302 302 303 303 303 302
303 297 299 301 298 302 300 301 301 301 302 304 304 303 308 309 309 308 307 306 307 306 306 306 306 306 304 303 304 304 305 308 310 310 310 309 308 306 303 302 302 303 302 302
303 300 298 298 299 299 301 302 304 305 305 307 305 303 307 307 307 306 308 308 305 305 305 305 306 306 304 302 303 303 303 305 308 309 309 309 308 307 306 303 302 303 302 302
306 306 300 299 302 302 300 303 308 311 310 308 299 303 307 306 306 305 303 303 304 305 304 303 303 303 302 302 302 302 302 302 303 305 307 307 307 307 306 304 302 302 303 303
304 303 298 297 300 302 301 302 303 305 300 306 306 304 305 306 307 306 305 304 305 303 302 301 301 301 301 301 300 301 301 301 302 304 305 306 306 306 306 304 302 302 303 303
299 304 298 297 297 299 301 302 302 303 308 308 308 308 309 308 307 303 302 301 300 299 298 298 298 299 299 299 299 299 300 301 301 302 304 305 305 306 306 305 303 302 302 302
300 300 300 297 299 301 299 301 302 304 305 308 308 309 303 304 303 301 300 299 298 298 297 297 296 297 298 298 298 298 298 299 300 300 302 303 305 305 306 305 304 303 302 302
298 300 301 302 297 296 300 302 302 305 305 303 305 308 302 301 300 301 300 298 297 296 296 295 295 296 297 297 297 297 297 298 299 299 301 302 303 304 305 305 304 303 302 302
294 300 303 302 299 296 299 299 300 303 302 310 308 308 300 300 300 299 299 297 296 295 294 294 296 296 296 296 296 297 297 297 298 298 299 300 301 302 303 304 303 303 303 302
291 293 297 299 301 300 299 299 300 302 305 305 305 307 302 301 300 298 296 295 294 293 292 292 292 294 295 296 296 297 297 297 297 298 298 299 300 301 302 302 303 303 302 302
291 291 293 293 294 297 303 300 299 301 303 305 304 304 304 301 298 295 294 294 293 291 290 290 290 290 294 296 297 297 297 297 298 298 298 298 299 300 300 301 302 302 302 302
290 291 291 295 294 297 298 300 305 303 300 302 305 307 298 296 294 293 292 292 291 290 288 287 287 287 289 294 296 296 297 298 298 297 298 298 298 299 300 300 300 301 301 301
289 290 292 293 293 295 298 300 301 305 303 304 302 302 300 295 293 291 290 289 288 286 286 284 284 284 286 290 293 294 295 296 298 298 298 297 298 299 299 299 300 301 301 301
289 290 292 294 294 295 297 292 294 294 291 293 294 293 294 293 289 287 286 286 285 285 284 283 284 284 285 287 291 292 294 296 296 297 297 297 298 298 298 299 300 300 300 300
291 291 288 292 296 295 293 292 292 292 291 290 290 290 291 290 289 286 285 284 283 282 282 282 282 283 284 285 286 289 292 294 295 296 296 296 297 297 298 299 299 299 300 300
287 289 292 291 292 294 291 291 291 292 291 289 289 288 289 291 294 287 284 283 282 281 280 279 280 281 282 283 284 286 287 289 292 295 295 295 296 295 296 297 298 299 299 299
287 287 288 289 290 291 290 290 291 293 291 288 287 286 286 287 285 283 282 282 282 281 280 280 280 279 279 281 283 283 284 288 287 289 292 294 295 296 295 296 297 298 298 298
286 287 287 288 289 289 290 290 290 290 289 288 285 284 284 284 283 282 281 281 280 280 281 281 281 281 280 280 280 281 283 284 286 289 289 291 293 294 295 294 295 296 297 297
286 286 286 287 287 289 287 288 286 286 289 285 284 282 281 281 281 280 280 280 280 280 279 280 279 280 280 280 280 280 281 282 284 286 287 289 290 293 294 295 294 294 295 295
286 285 288 287 288 289 286 283 282 282 281 280 279 279 279 278 278 278 278 277 277 278 278 279 279 279 279 279 279 279 279 281 281 283 284 285 288 290 292 293 293 294 293 293
287 286 287 287 288 287 282 280 279 279 279 278 276 276 276 276 276 276 276 276 276 277 277 277 277 277 277 278 278 278 278 280 281 281 282 282 283 284 286 289 291 293 293 292
287 287 287 287 283 283 284 278 278 278 278 277 275 274 274 273 273 273 273 274 274 275 275 276 276 277 278 277 277 277 277 278 279 280 280 281 281 282 283 284 287 290 291 291

GFSCGP_850_thetae_291.txt.gz
Theta_e
302 303 307 307 307 307 308 308 308 309 310 309 310 311 311 311 311 313 312 312 312 313 313 314 314 313 312 312 312 313 314 315 315 315 315 312 310 308 304 302 302 303 304 304
306 305 309 310 309 307 307 308 309 309 308 308 308 308 309 309 310 310 310 310 310 310 310 310 310 312 311 312 312 311 312 315 315 316 316 316 315 310 306 303 302 303 304 304
309 310 310 309 310 307 308 309 310 310 310 308 307 308 310 309 310 309 309 309 309 309 309 309 310 310 310 310 311 311 311 312 314 315 313 311 310 307 304 302 302 303 303 303
308 310 309 311 309 309 308 309 309 309 308 308 308 308 311 311 310 311 311 310 309 309 308 308 308 308 309 308 309 310 310 310 312 312 312 313 315 310 309 307 304 303 303 303
309 307 306 307 311 307 307 307 308 307 307 308 308 305 310 310 309 310 310 310 309 309 309 308 308 307 307 307 307 308 308 309 310 311 312 312 312 312 310 306 304 302 303 303
307 305 303 306 308 308 306 305 303 304 305 309 308 309 311 312 314 314 313 310 309 309 308 307 306 306 306 305 306 306 306 307 307 308 310 311 311 311 308 306 304 302 302 303
307 308 304 300 302 302 306 305 308 308 307 308 310 309 310 312 310 310 310 310 309 307 308 307 307 306 304 305 305 305 305 305 306 306 307 308 309 310 310 310 307 303 302 303
304 309 308 305 302 305 303 306 312 313 315 312 310 307 311 311 310 310 308 307 306 307 307 304 303 302 302 303 304 306 305 305 305 305 305 306 306 307 308 309 308 305 302 303
298 302 303 301 301 303 305 304 306 308 308 307 310 307 309 309 308 308 307 307 305 303 302 301 300 300 300 301 302 304 305 305 305 304 304 304 305 305 306 308 307 305 303 302
295 298 301 300 299 300 302 303 304 305 307 310 310 311 312 312 310 306 304 303 302 301 300 299 299 298 298 299 300 302 303 304 304 304 303 304 304 304 305 305 306 306 304 302
294 295 298 300 300 302 301 302 304 306 306 310 311 312 305 306 305 304 302 301 300 299 298 298 297 297 297 297 298 299 301 302 303 302 302 303 303 303 303 303 304 305 305 302
292 293 296 296 301 298 299 301 303 306 306 306 308 311 304 304 303 303 301 299 298 298 297 296 295 295 295 295 296 296 297 299 301 301 302 302 302 302 302 302 303 304 305 303
291 291 293 294 301 296 298 298 302 302 304 307 309 307 303 303 302 301 300 298 297 296 295 294 294 293 293 293 294 294 295 296 298 299 300 301 301 301 301 301 302 302 303 303
290 290 290 292 293 293 294 297 298 302 303 304 305 306 305 303 302 300 298 297 295 294 293 292 291 290 290 290 292 293 294 295 296 297 298 300 300 301 301 301 301 301 302 302
289 288 289 291 291 291 294 297 297 298 304 303 304 305 307 305 301 297 296 295 293 291 290 289 288 287 287 288 290 291 294 295 295 296 297 297 298 299 299 300 300 300 301 302
289 289 289 288 290 293 294 296 297 299 299 303 302 303 300 298 297 295 293 292 290 288 287 286 286 285 284 285 287 289 292 293 295 295 295 296 296 297 298 298 299 299 300 301
289 289 289 290 291 292 293 296 297 297 294 295 301 298 296 297 292 291 290 289 287 286 285 284 283 283 281 283 285 289 291 293 294 294 295 295 295 296 297 297 298 298 299 300
289 289 289 292 289 293 295 293 293 294 292 291 292 292 293 292 288 287 286 286 284 284 283 282 282 280 281 283 285 285 290 292 294 294 295 295 295 295 296 296 297 298 298 299
289 288 288 288 291 291 293 292 292 293 292 290 290 290 290 289 288 286 285 284 283 282 281 280 280 280 281 283 283 285 287 288 291 294 294 295 295 294 295 296 296 297 297 298
287 288 288 289 288 290 292 289 290 292 293 290 289 289 288 290 292 287 284 283 282 281 281 281 281 280 281 282 282 283 284 287 288 288 290 292 294 295 295 295 295 296 297 297
287 288 287 288 288 289 290 289 290 293 292 289 288 287 287 287 285 284 283 282 281 279 279 279 280 282 283 282 282 283 283 285 284 284 287 289 291 293 294 295 295 295 296 296
287 287 288 287 286 286 289 288 289 289 289 289 287 286 285 285 283 282 282 281 281 280 279 279 278 279 280 280 281 282 283 283 283 284 287 289 290 289 291 294 295 295 295 295
287 287 287 286 287 289 288 288 288 286 287 286 285 283 281 282 281 281 280 280 279 279 278 279 279 278 279 280 280 280 281 282 283 283 283 283 284 288 290 291 293 293 295 294
287 288 287 287 288 289 288 287 284 283 283 281 280 279 279 279 279 278 278 278 277 276 277 277 278 278 278 278 279 279 279 280 281 282 283 283 283 283 284 285 289 293 293 293
287 288 287 288 288 288 287 285 283 282 280 280 279 279 278 277 276 276 276 276 275 276 276 276 276 276 277 277 277 278 278 279 280 280 281 282 283 283 283 283 283 284 286 290
287 287 288 288 288 287 287 284 281 280 280 277 276 276 276 274 274 274 274 274 274 274 275 275 276 276 276 277 277 277 277 278 278 279 279 280 281 282 282 283 284 284 284 284